This demonstration page uses our WeatherBlox Daily Observations layout. Learn more.

Left ArrowRight Arrow

30.21309, -93.2044

Hourly Observations for March 17, 2015

Temp ( °F °C ) Dew Point ( °F °C ) Humidity (%) Winds ( mph kmh ) Pressure ( in mb ) Visibility ( mi km ) Precip ( " mm )
12:15 am 00:15 Clear 65 18.5 60 15.4 82 82 SW 3 6 30.15 1021 10 16 0.00 0.00
12:35 am 00:35 Clear 65 18.5 60 15.3 82 82 SW 3 6 30.15 1021 10 16 0.00 0.00
12:55 am 00:55 Clear 65 18.3 60 15.5 84 84 SSW 3 6 30.15 1021 10 16 0.00 0.00
1:15 am 01:15 Clear 62 16.9 59 15.1 89 89 Calm 30.15 1021 10 16 0.00 0.00
1:35 am 01:35 Clear 65 18.1 60 15.5 85 85 WSW 3 6 30.15 1021 10 16 0.00 0.00
1:55 am 01:55 Clear 65 18.1 60 15.6 85 85 SW 5 7 30.15 1021 10 16 0.00 0.00
2:15 am 02:15 Clear 65 18.2 60 15.6 85 85 WSW 5 7 30.15 1021 10 16 0.00 0.00
2:35 am 02:35 Clear 65 18.2 60 15.5 84 84 WSW 6 9 30.15 1021 10 16 0.00 0.00
2:55 am 02:55 Clear 65 18.1 60 15.6 85 85 WSW 3 6 30.15 1021 10 16 0.00 0.00
3:15 am 03:15 Clear 64 17.6 60 15.3 86 86 Calm 30.12 1020 10 16 0.00 0.00
3:35 am 03:35 Clear 62 16.8 59 15 89 89 Calm 30.12 1020 10 16 0.00 0.00
3:55 am 03:55 Clear 62 16.4 59 15.2 93 93 Calm 30.12 1020 7 11 0.00 0.00
4:15 am 04:15 Clear 62 16.5 60 15.5 94 94 Calm 30.12 1020 7 11 0.00 0.00
4:35 am 04:35 Clear 62 16.4 60 15.3 93 93 WSW 3 6 30.12 1020 7 11 0.00 0.00
4:55 am 04:55 Clear 61 16.1 59 15 93 93 Calm 30.12 1020 7 11 0.00 0.00
5:15 am 05:15 Clear 61 16.2 59 15.2 94 94 W 3 6 30.12 1020 7 11 0.00 0.00
6:00 am 06:00 Mostly Clear with Mist and Fog 63 17 61 16 94 94 Calm 30.12 1020 5 8 0.00 0.00
6:50 am 06:50 Mostly Clear 63 17 61 16 94 94 Calm 30.15 1021 7 11 0.00 0.00
7:50 am 07:50 Mostly Sunny 63 17 61 16 94 94 Calm 30.15 1021 7 11 0.00 0.00
8:45 am 08:45 Mostly Sunny 63 17 61 16 94 94 VRB 3 6 30.18 1022 7 11 0.00 0.00
9:45 am 09:45 Mostly Sunny 70 21 64 18 83 83 W 6 9 30.18 1022 10 16 0.00 0.00
10:55 am 10:55 Mostly Sunny 73 23 66 19 78 78 W 9 15 30.18 1022 10 16 0.00 0.00
11:55 am 11:55 Mostly Sunny 75 24 66 19 74 74 WNW 6 9 30.18 1022 10 16 0.00 0.00
12:55 pm 12:55 Partly Cloudy 79 26 66 19 65 65 W 8 13 30.15 1021 10 16 0.00 0.00
1:55 pm 13:55 Mostly Cloudy 79 26 66 19 65 65 WSW 8 13 30.12 1020 10 16 0.00 0.00
2:55 pm 14:55 Partly Cloudy 81 27 66 19 62 62 WSW 8 13 30.09 1019 10 16 0.00 0.00
4:50 pm 16:50 Partly Cloudy 82 28 66 19 58 58 WSW 7 11 30.06 1018 10 16 0.00 0.00
9:50 pm 21:50 Mostly Clear 70 21 66 19 88 88 SSW 7 11 30.09 1019 10 16 0.00 0.00
10:15 pm 22:15 Clear 69 20.6 67 19.2 92 92 SW 3 6 30.09 1019 10 16 0.00 0.00
10:35 pm 22:35 Clear 69 20.4 66 19.1 92 92 SSW 5 7 30.09 1019 10 16 0.00 0.00
10:55 pm 22:55 Clear 68 20.2 66 19 93 93 S 5 7 30.09 1019 10 16 0.00 0.00
11:15 pm 23:15 Clear 68 20.1 66 19 93 93 SSW 3 6 30.09 1019 10 16 0.00 0.00
11:35 pm 23:35 Clear 68 19.9 66 19 95 95 S 5 7 30.06 1018 10 16 0.00 0.00
11:55 pm 23:55 Clear 67 19.7 66 19 96 96 SW 5 7 30.06 1018 10 16 0.00 0.00

Powered by AerisWeather